Back to catalog

GAOFEN 5 01A

AliveScienceSSO
NORAD 54640·PAYLOAD·🇨🇳 China

Launched Dec 8, 2022 from Taiyuan Satellite Launch Center

Loading…

Next Passes (next 24 hours)

TLE

FreshSource: Space-Track

Epoch: Sep 14, 2026, 14:50 UTC

1 54640U 22165A   26257.61831705  .00000283  00000-0  72016-4 0  9991
2 54640  98.2384 194.0399 0003077  87.3951 272.7600 14.57758488200441

Track GAOFEN 5 01A in real time with AllMySat

Download on the App Store